RH
14 14 14 14 14 15 16 17 16 17 17 18 18 15 11 8 6 5 5 5 6 6 6 6 6 5 5 4 5 5 6 4 3 3 4 5 5 6 5 7 9 9 11 12 14 14 15 15 16 22 22 26 42 49 48 47 42 42 44 44 45 41 39 35 33 34 33 34 33 33 32 32 39 36 38 45 45 47 53 58 60 63 71 75 61 50 52 48
16 16 15 15 14 14 15 16 17 16 16 16 17 17 16 13 10 7 6 5 5 5 5 6 5 6 5 4 5 5 6 5 3 3 4 5 6 6 5 5 6 7 9 11 13 13 12 14 17 22 28 35 46 48 42 39 37 37 39 43 46 38 34 33 31 33 34 36 34 35 33 31 36 32 35 43 41 45 52 56 57 64 78 72 52 50 51 46
20 19 18 17 16 15 15 16 17 17 17 16 16 16 17 17 15 12 9 7 5 5 5 5 5 5 5 5 4 4 6 4 4 4 4 5 5 6 5 5 5 5 7 8 11 11 12 25 37 36 39 42 40 39 36 33 33 33 35 39 41 35 33 33 30 32 34 36 35 35 34 32 33 31 35 39 38 44 50 51 56 71 83 66 47 47 47 46
22 21 20 20 19 19 17 16 17 17 18 17 16 15 15 16 17 17 15 12 9 7 6 5 5 4 5 5 4 5 4 5 11 9 4 5 5 6 6 5 5 5 6 7 9 12 19 33 45 43 40 38 32 32 31 29 30 30 31 36 36 32 32 30 29 32 33 36 37 35 35 32 31 31 34 36 35 42 47 48 59 73 68 54 46 43 44 47
23 22 22 21 21 20 20 19 18 18 18 18 18 17 15 15 16 17 17 17 15 12 10 7 6 4 5 4 4 5 3 12 25 19 9 8 7 6 6 5 6 5 5 7 7 14 28 33 36 38 36 33 28 28 27 27 28 27 27 30 31 31 32 30 28 29 30 35 38 36 36 33 32 31 32 34 33 36 43 46 60 70 53 43 46 41 41 45
22 22 22 22 21 21 21 20 20 20 19 19 19 18 17 16 15 16 16 17 17 16 15 12 9 6 5 4 4 4 4 16 29 24 16 13 10 7 6 6 6 6 5 6 6 12 28 32 31 33 33 31 27 25 25 24 24 22 22 25 28 29 31 31 29 26 26 32 36 37 38 35 32 31 32 35 31 33 40 46 60 66 51 40 41 41 40 41
18 20 21 22 22 22 21 21 21 20 20 20 20 19 19 18 16 16 15 16 16 17 17 15 14 10 7 5 4 4 4 10 19 20 17 12 11 9 6 5 6 6 5 6 6 11 23 28 27 29 30 31 27 24 25 22 20 18 19 22 25 27 29 29 28 27 26 28 34 37 38 36 33 33 32 33 32 34 38 48 58 53 47 42 34 38 40 38
14 16 17 19 20 21 21 21 21 20 20 20 20 20 19 19 18 17 16 15 15 16 16 17 16 14 12 7 5 5 2 8 17 19 16 10 9 10 7 5 5 6 5 5 5 8 20 27 24 25 26 29 27 24 23 20 18 16 15 17 20 23 25 26 26 27 26 26 32 36 36 34 35 35 32 32 33 36 37 48 57 41 39 47 34 33 36 36
12 12 13 15 17 19 20 20 21 20 20 20 20 20 19 19 19 19 18 17 16 16 16 16 16 16 15 11 8 5 6 18 26 23 17 10 6 8 8 6 5 6 5 6 6 6 19 27 23 22 23 26 27 23 21 18 17 15 15 15 16 19 22 24 25 25 23 23 29 34 34 34 36 34 31 34 33 35 39 48 56 40 33 44 41 39 37 33
11 11 11 12 13 15 17 18 19 20 20 20 19 19 19 19 19 19 19 18 18 17 16 15 16 17 16 15 11 7 12 22 25 21 16 8 4 6 8 7 5 6 5 6 6 5 16 26 23 22 22 24 26 23 20 18 16 14 14 14 16 18 20 23 23 23 20 20 26 30 33 36 37 32 31 37 33 34 41 47 54 44 33 37 38 39 36 31
10 11 10 11 11 12 13 15 16 18 19 20 19 19 18 18 18 19 19 19 18 18 18 17 16 16 15 16 12 9 13 19 22 23 21 11 3 4 6 7 5 5 6 5 6 5 13 23 23 21 20 21 23 22 19 17 16 14 13 14 15 16 18 22 21 19 18 18 22 26 33 37 35 31 33 37 34 35 42 46 51 47 42 38 32 32 27 26
10 10 10 10 10 10 11 12 13 14 16 18 19 19 19 18 18 18 18 18 18 18 18 18 18 17 16 13 10 11 13 15 20 24 25 15 5 4 5 8 7 5 6 5 7 8 11 19 21 19 17 18 18 19 17 16 15 14 14 14 14 15 17 20 19 19 18 17 19 24 32 36 34 33 35 37 35 36 40 44 47 49 52 45 36 33 21 20
8 9 9 9 10 10 10 10 11 11 13 14 16 17 18 18 18 17 17 17 17 18 18 18 18 18 17 12 8 12 12 11 13 18 25 21 8 5 4 6 9 7 6 6 10 14 13 13 17 17 15 15 15 16 16 14 14 13 14 14 14 15 16 17 18 19 18 16 20 24 30 34 34 34 36 39 37 36 39 43 44 48 54 46 40 36 18 16
8 8 8 8 9 9 9 9 9 10 10 11 12 14 15 17 18 17 17 17 17 17 17 17 17 18 16 11 9 12 11 9 11 14 23 24 12 7 6 6 7 7 6 5 8 17 19 15 14 15 15 15 14 14 14 14 14 14 14 14 14 15 15 16 18 20 17 18 22 24 30 35 35 34 36 40 39 37 39 43 43 46 51 45 44 41 19 15
11 9 8 8 8 8 9 8 9 9 9 9 10 11 12 13 15 16 17 16 17 16 17 17 16 17 15 10 9 11 11 10 10 11 16 21 15 7 8 10 8 6 7 7 6 13 20 19 16 15 14 15 14 14 13 13 14 14 14 13 14 15 15 17 19 20 17 21 25 23 29 35 35 34 36 40 41 39 39 43 44 45 50 46 48 44 21 15
17 14 10 9 8 8 8 8 8 9 8 9 9 9 10 11 12 14 14 15 16 16 16 16 15 15 14 14 11 9 10 10 9 9 10 14 14 10 14 20 19 13 9 9 8 10 18 21 19 16 14 14 14 14 14 13 12 13 14 13 14 14 14 16 19 19 19 24 26 23 27 33 34 34 36 39 41 41 41 43 43 44 49 48 49 43 22 16
23 20 16 12 10 8 7 7 8 8 8 8 8 8 9 9 10 11 11 12 13 15 16 16 15 13 12 15 12 9 13 14 12 11 9 7 10 18 24 26 26 21 14 14 14 12 17 20 19 17 14 13 14 14 14 13 12 11 13 14 14 14 13 16 20 20 20 24 26 24 26 29 31 33 35 39 40 41 43 44 44 43 47 50 49 46 29 15
26 25 22 18 14 11 9 8 7 7 8 8 8 8 8 9 9 9 9 10 11 12 13 13 14 12 14 19 19 16 19 23 21 16 12 8 10 21 29 28 26 24 20 20 18 15 18 18 16 15 13 12 13 13 14 14 13 11 13 13 13 14 13 15 20 21 21 23 25 25 25 27 29 32 35 38 40 41 43 45 46 44 46 51 51 52 41 21
28 27 26 24 20 16 13 10 8 7 7 8 8 8 9 8 8 9 8 8 10 9 10 18 22 15 15 24 27 25 23 25 26 21 20 18 15 19 27 29 26 23 21 21 19 16 17 17 14 13 12 12 12 13 14 14 13 12 13 14 14 15 14 15 18 20 22 23 24 25 25 26 28 31 34 38 40 40 42 45 47 47 47 52 53 54 51 32
29 29 28 27 25 22 18 14 11 9 7 7 8 8 9 8 8 12 10 7 8 8 10 22 29 17 11 20 27 27 26 26 25 23 24 23 19 19 24 27 24 21 21 19 18 15 15 16 14 13 12 12 12 13 14 14 14 13 13 13 14 14 14 16 17 18 21 22 23 26 26 27 28 31 34 38 41 41 43 45 46 48 48 52 55 55 56 44
29 29 29 29 28 26 23 19 15 12 9 8 7 8 9 8 9 12 9 6 7 7 7 12 18 13 7 15 24 25 24 25 24 24 23 21 21 20 22 24 22 21 20 17 16 15 15 14 13 12 11 11 11 12 13 13 12 13 13 13 13 14 14 16 16 16 20 22 22 26 27 27 28 31 36 40 43 42 43 44 46 49 49 51 55 57 58 55
29 29 29 29 30 29 27 24 20 16 12 9 8 9 9 8 9 9 8 7 6 7 7 6 9 8 4 8 17 21 21 21 23 24 22 19 19 20 20 22 21 20 19 15 14 14 14 13 12 11 10 9 9 10 12 12 12 12 13 13 12 14 14 15 16 15 19 22 21 24 26 27 27 30 36 41 43 43 42 44 45 48 51 51 54 58 60 59
30 29 29 28 30 31 29 27 24 20 16 12 10 9 9 8 9 10 9 8 5 5 6 5 5 5 4 5 8 15 19 18 18 21 21 19 17 17 19 21 20 19 17 14 12 12 12 11 11 10 9 8 8 9 10 11 12 12 12 13 12 13 14 14 15 14 19 22 21 22 24 26 27 29 34 38 40 41 41 42 43 46 50 52 52 56 61 61
32 29 29 28 29 31 31 29 27 24 19 15 12 10 9 9 9 10 10 8 6 6 6 6 5 4 4 4 5 10 15 15 15 16 18 19 17 16 19 21 20 18 16 14 12 10 11 11 10 9 8 8 8 8 9 10 12 12 12 12 12 12 13 14 15 14 17 21 21 21 24 25 26 28 31 34 36 37 39 41 43 44 48 51 52 54 59 62
34 31 29 29 28 30 32 30 28 26 21 17 14 12 10 10 9 10 9 9 8 6 7 8 6 5 4 5 7 10 12 13 13 12 14 17 17 17 18 20 20 18 16 14 12 10 10 10 9 9 8 7 7 7 8 9 10 11 12 12 12 12 12 13 15 14 16 21 22 22 24 25 26 27 28 31 33 34 38 42 43 44 46 48 49 53 57 59
37 34 30 30 29 29 32 31 28 26 22 19 17 14 12 10 10 10 10 13 13 9 9 11 8 6 6 6 8 11 12 12 11 11 12 14 17 18 18 19 19 18 17 14 13 11 9 9 8 8 8 7 7 7 8 9 10 11 11 12 12 12 12 13 14 13 14 18 21 22 24 24 25 27 28 30 31 32 37 41 43 43 44 45 45 49 54 56
41 39 34 32 31 29 31 32 30 27 24 22 20 16 12 11 11 10 15 22 18 12 12 12 10 9 8 8 10 11 12 12 12 11 11 13 16 17 16 17 18 17 16 15 13 12 10 9 8 8 8 7 7 6 7 8 9 9 10 11 11 11 12 12 12 13 14 16 19 21 24 25 25 27 28 30 31 33 37 38 41 45 44 44 44 46 52 54
44 43 40 36 35 32 30 32 32 29 26 24 22 17 13 13 10 11 23 29 18 13 16 13 11 10 9 12 12 10 11 13 14 12 10 12 15 16 16 16 17 16 16 15 14 12 11 10 8 7 8 7 6 6 6 7 8 8 9 10 10 11 11 12 11 12 13 15 17 18 21 24 25 27 28 29 31 33 37 37 39 43 44 44 44 46 51 50
45 46 44 40 39 37 33 33 33 31 28 26 22 17 13 13 10 13 27 30 17 13 17 15 14 12 11 15 15 11 11 13 14 13 13 12 14 16 16 15 16 16 15 15 13 12 11 11 9 7 7 8 7 6 6 6 7 8 8 9 9 10 11 11 12 12 12 14 15 15 18 22 24 26 27 28 29 31 33 34 35 37 40 44 44 43 45 45
47 47 46 43 42 40 37 35 34 32 29 27 22 17 14 12 14 21 27 25 16 13 16 17 16 15 15 17 17 14 12 13 14 16 16 14 14 16 16 15 16 16 16 15 14 13 12 11 11 8 8 8 7 6 5 5 6 7 8 8 9 9 10 11 12 11 12 15 15 14 15 20 23 25 26 27 28 28 29 30 32 33 37 42 42 40 43 46
48 48 48 47 44 42 40 38 35 33 30 27 22 17 14 12 17 26 26 20 15 13 16 19 17 17 18 18 18 16 13 14 16 17 17 15 15 17 17 16 15 15 16 15 15 14 12 12 12 11 10 9 6 5 5 5 6 6 7 7 8 9 9 10 11 11 13 16 15 13 13 17 21 22 22 24 26 27 26 26 28 31 36 40 39 40 44 45
47 48 48 49 47 44 42 39 36 34 30 26 22 16 15 17 20 24 22 17 15 13 15 17 17 18 19 18 18 17 15 15 17 18 17 15 16 17 16 15 15 15 14 15 15 14 13 12 12 13 12 10 7 6 6 5 5 5 6 7 8 9 11 13 13 12 14 14 13 13 13 14 17 18 18 21 23 24 24 24 25 28 32 35 36 40 44 40
47 49 49 50 49 46 45 41 38 36 31 27 22 15 17 24 23 20 20 17 14 12 12 14 15 16 17 18 17 16 16 15 16 18 17 15 16 16 15 15 15 15 13 13 14 14 13 12 12 12 13 11 8 6 7 5 5 6 6 8 9 9 13 16 15 14 14 14 12 12 13 13 13 14 15 18 21 23 23 23 24 27 28 32 36 38 38 35
46 48 49 50 49 48 46 43 40 35 31 27 21 17 21 26 23 20 19 17 15 13 12 13 14 14 16 17 16 15 16 16 15 17 18 17 16 16 15 14 14 14 12 11 12 13 13 13 12 12 12 12 9 7 7 6 6 7 6 7 8 8 12 14 14 14 13 12 12 12 13 13 11 12 14 16 19 21 22 23 24 27 28 30 33 32 29 28
45 47 48 49 50 49 45 44 41 35 32 28 21 21 25 25 22 20 19 17 16 15 13 13 12 12 14 15 16 15 14 15 15 15 16 17 16 14 14 14 13 12 12 12 12 12 12 12 12 12 12 12 11 9 8 7 6 6 5 6 6 7 9 11 12 11 10 12 14 13 12 12 12 12 13 14 17 19 21 22 23 26 29 28 28 30 28 25
37 42 45 47 48 47 45 44 41 35 31 28 28 30 27 23 21 19 18 17 16 15 14 13 12 12 12 13 15 15 13 13 15 15 15 16 16 15 13 13 12 11 13 13 12 11 12 12 11 12 12 11 11 10 9 8 6 4 5 5 5 6 7 10 12 10 10 13 14 12 11 11 12 13 13 14 16 18 19 20 21 24 26 24 25 28 28 25
23 30 36 44 46 45 44 41 39 36 30 30 36 36 29 24 22 19 17 16 15 14 14 13 12 12 11 12 13 14 13 12 13 14 14 15 16 15 13 13 13 12 12 13 12 10 11 11 12 12 12 11 11 11 10 9 7 5 4 4 5 6 7 10 11 9 11 15 14 11 10 12 13 13 14 15 15 17 19 19 19 22 24 22 22 24 25 27
16 16 23 42 53 51 46 43 40 33 29 37 42 38 33 30 26 20 18 17 14 14 13 12 12 11 11 12 12 13 13 11 12 12 12 13 14 15 15 13 12 12 13 13 12 10 10 10 11 12 12 11 10 11 10 10 9 6 4 5 5 6 6 8 9 10 13 16 15 12 11 13 13 12 12 14 14 16 18 19 19 20 21 21 21 24 27 27
16 13 20 51 77 76 62 47 37 31 39 54 53 44 41 37 30 24 20 17 16 14 13 12 12 12 11 11 12 13 12 11 11 10 10 11 11 13 15 14 13 12 13 13 11 11 10 10 10 11 11 10 9 11 11 9 9 7 5 5 4 5 6 7 8 10 14 16 15 12 12 13 12 11 11 12 13 14 17 19 20 19 19 19 20 26 30 26
19 15 17 44 75 88 76 49 34 37 51 64 60 53 49 41 36 30 23 19 18 16 15 12 11 13 12 12 12 12 12 11 11 10 10 11 10 11 13 13 13 12 12 13 12 10 11 10 10 10 11 11 10 11 11 9 9 8 6 5 4 5 7 8 8 9 12 15 14 14 14 12 11 11 11 11 12 13 15 18 18 18 18 17 17 21 25 22
20 17 22 45 65 81 86 70 57 54 53 54 53 53 53 47 43 39 30 24 20 18 18 14 12 12 12 14 13 11 11 11 11 11 11 11 10 10 12 12 13 12 12 12 12 11 10 11 12 11 10 11 10 11 12 11 10 8 7 5 4 5 6 8 9 8 10 12 13 14 14 12 10 11 11 11 12 14 16 18 18 18 19 19 16 16 18 18
20 16 28 58 70 71 77 75 70 65 55 49 47 45 45 44 44 44 39 33 27 21 19 16 14 12 12 14 15 13 11 10 9 10 10 11 11 11 11 12 12 12 12 12 12 12 10 10 11 12 11 11 11 11 12 12 11 10 8 6 4 4 5 7 9 8 9 11 10 11 12 11 11 11 11 12 12 13 16 17 17 18 20 20 19 17 17 17
22 16 17 37 52 61 70 68 62 60 54 49 46 42 40 39 39 40 39 37 33 27 22 18 16 14 11 12 15 15 13 11 10 9 9 10 12 11 11 10 11 12 12 12 12 12 12 11 10 12 13 13 12 11 11 12 12 10 9 7 5 5 4 5 7 8 8 10 9 10 11 11 11 11 12 13 13 13 15 16 17 17 19 20 18 16 18 19
27 19 11 15 29 49 67 65 56 51 45 41 42 40 39 37 36 36 36 35 34 30 25 21 17 16 14 12 13 14 12 12 11 10 9 9 10 11 11 10 10 12 12 12 13 13 13 12 11 13 15 16 15 12 10 11 12 11 10 9 7 6 5 4 5 6 8 9 8 9 12 12 11 11 11 13 14 13 14 15 16 17 17 18 18 16 17 19
43 32 21 21 34 47 55 55 51 47 40 36 37 37 38 39 37 35 34 32 32 31 28 24 19 15 14 13 12 12 12 12 12 12 11 10 9 9 10 10 11 13 13 13 13 13 13 13 13 14 15 17 18 14 10 10 11 11 10 10 8 6 6 4 3 5 8 9 9 10 11 11 10 10 11 12 13 13 13 14 16 17 16 15 15 16 16 16
68 56 34 35 53 56 54 55 52 49 44 43 48 49 49 50 46 41 37 33 31 30 27 26 23 18 15 13 12 12 11 11 11 12 12 12 11 11 11 10 10 13 14 14 14 15 15 15 15 14 14 15 16 14 11 11 11 10 10 10 9 7 6 5 4 4 5 7 9 10 11 11 10 10 11 12 12 12 14 16 17 16 15 14 16 19 19 16
82 72 54 64 75 61 53 55 56 58 57 60 69 68 61 58 52 47 44 40 38 38 34 28 24 21 18 15 13 12 12 12 12 11 12 13 12 13 13 11 10 13 14 15 18 17 16 15 15 15 15 14 15 15 13 11 10 10 10 9 9 8 7 6 5 5 5 6 7 8 10 12 12 11 12 12 11 12 13 15 16 17 17 15 16 18 19 18
84 77 70 84 90 76 66 61 59 67 71 73 80 78 70 66 58 52 52 49 49 52 50 41 33 29 25 21 18 14 11 11 12 11 12 14 14 14 13 12 11 13 15 16 18 18 17 17 16 16 16 15 15 16 15 13 12 11 10 9 9 8 7 6 6 5 6 6 6 6 7 10 12 12 13 13 12 13 14 15 16 17 18 17 16 17 18 20
77 74 69 79 87 88 85 76 71 75 75 75 77 72 69 69 63 58 58 59 60 60 61 60 57 55 53 45 37 30 23 17 14 13 10 11 13 14 14 13 11 12 14 16 16 17 17 18 17 16 16 16 16 16 16 15 14 12 10 8 9 9 7 7 7 6 6 6 6 6 6 8 10 11 13 14 13 13 14 15 17 19 18 17 18 18 19 20
82 82 79 83 85 83 81 78 79 78 72 71 72 66 63 65 65 62 60 63 65 63 66 71 69 67 68 60 52 55 56 49 42 36 27 20 17 14 13 14 13 12 13 14 16 17 18 19 20 19 18 18 18 17 16 16 16 15 12 9 10 11 9 8 8 7 6 5 6 6 6 7 8 9 10 11 12 12 14 15 15 17 18 17 18 19 19 19
83 85 87 86 75 67 69 73 77 78 72 70 72 68 63 60 61 63 64 66 68 67 71 76 71 67 67 64 66 75 78 70 56 45 40 36 28 19 15 14 13 12 13 13 14 15 16 18 19 20 22 22 19 16 15 16 17 16 15 14 13 12 10 8 8 9 8 6 6 6 7 8 8 8 9 9 10 10 11 13 13 13 16 18 18 18 19 19
76 79 88 89 71 60 69 79 81 81 75 68 69 71 68 62 60 64 69 70 69 69 71 72 71 70 67 66 72 78 80 74 58 43 43 43 33 26 25 21 14 12 12 12 13 13 14 16 17 20 22 23 20 17 16 18 18 17 16 15 14 14 12 9 10 12 10 8 7 7 7 8 8 8 8 9 12 12 11 13 13 12 15 17 17 16 16 18
Wind_Speed
17 16 16 16 16 15 15 15 14 14 14 13 13 13 13 14 14 14 15 15 15 15 15 15 15 14 15 17 17 17 17 16 17 19 19 18 21 26 27 26 25 25 25 24 23 22 19 17 16 12 9 7 7 8 7 10 10 11 13 11 12 8 6 6 5 5 5 6 6 8 8 8 9 7 9 11 10 11 13 11 8 8 12 13 12 13 16 18
17 17 17 17 17 16 16 15 15 14 14 14 13 13 13 13 13 13 14 14 14 14 15 15 15 15 14 15 17 16 15 16 17 17 16 16 19 22 23 23 24 24 25 24 23 21 18 15 14 11 10 8 9 12 11 11 11 11 11 10 9 6 5 6 4 4 4 6 7 7 7 7 8 8 11 12 10 11 13 12 11 13 17 14 11 14 15 17
18 18 18 18 18 18 17 16 16 15 14 14 14 13 13 12 12 12 13 13 14 14 14 14 15 15 14 14 15 15 14 14 15 14 14 16 18 19 20 21 22 23 24 24 22 21 16 11 10 11 11 12 13 13 12 10 11 11 10 9 6 6 6 5 2 2 4 6 7 7 7 7 8 7 10 10 8 11 12 12 13 16 19 14 12 15 15 17
19 19 19 18 18 18 18 17 17 16 15 15 14 14 14 13 12 12 12 12 13 13 13 13 14 14 14 14 14 14 12 10 10 12 13 14 15 17 19 19 19 22 23 23 23 20 15 11 12 13 14 15 14 13 13 11 10 9 9 7 3 5 4 2 0 3 3 5 7 6 7 7 7 7 8 10 8 11 12 11 15 17 15 12 13 15 14 16
20 20 20 19 19 19 19 18 18 17 16 16 15 15 14 14 13 12 12 12 13 12 13 13 12 13 14 13 13 12 8 4 5 11 11 11 13 15 17 18 18 20 21 23 24 20 16 14 14 15 16 16 14 14 14 12 11 8 8 8 6 4 3 1 1 2 2 4 7 4 6 8 8 7 7 9 7 8 12 12 15 15 11 10 13 15 15 15
20 21 20 20 20 20 20 19 19 18 18 17 16 16 15 15 14 14 13 13 13 12 12 12 12 12 12 13 13 12 8 4 4 10 12 11 12 14 16 17 18 19 21 23 24 22 19 16 16 17 17 16 15 15 15 14 13 11 10 9 7 7 3 1 3 2 2 4 6 5 7 7 8 7 7 8 3 7 13 13 16 14 10 9 12 14 14 15
21 21 21 21 21 20 21 20 20 19 19 18 18 17 17 16 15 15 14 14 13 13 12 12 12 11 12 13 12 12 13 10 8 13 16 13 13 14 16 17 17 19 21 23 25 23 21 19 18 19 18 17 15 15 16 15 16 13 10 8 9 9 7 4 4 4 4 4 5 7 6 6 8 8 8 8 6 9 14 14 16 11 9 10 10 14 15 14
20 21 21 21 21 21 21 21 21 20 19 19 18 18 17 17 16 16 16 15 14 14 13 12 12 11 11 12 12 14 12 8 12 18 19 16 13 13 15 17 18 19 21 22 24 23 21 20 20 19 19 19 16 15 14 13 16 15 10 9 10 10 9 8 6 6 7 5 6 7 6 6 8 8 9 10 9 12 14 16 16 9 10 13 10 13 15 14
20 20 20 20 21 22 22 22 22 21 20 20 19 19 18 17 17 17 17 17 15 15 14 13 13 12 12 12 13 13 5 4 15 21 20 18 13 13 14 16 18 19 20 21 22 23 21 20 20 20 20 19 17 16 14 14 15 15 12 10 11 11 9 9 8 9 10 9 8 7 8 7 7 8 10 12 12 12 14 17 16 10 10 14 13 13 14 15
20 20 20 20 20 21 22 22 22 22 21 21 20 19 19 18 17 18 18 18 17 16 15 15 13 14 13 13 14 12 5 6 14 18 19 18 13 13 14 15 18 19 20 21 22 24 23 20 18 19 19 19 18 17 17 17 17 16 16 13 11 12 10 10 12 12 12 12 11 9 9 10 9 8 10 14 13 13 16 17 16 11 10 13 14 15 15 15
20 20 20 20 20 21 21 22 22 22 22 22 22 21 19 19 18 18 18 18 18 18 17 16 15 16 15 16 15 12 9 7 8 13 17 17 12 13 15 15 18 18 20 21 22 23 24 22 17 17 19 20 20 19 19 19 19 18 17 15 12 11 11 12 12 12 12 11 11 10 10 11 11 7 10 15 14 15 17 17 16 13 12 13 13 15 16 16
20 19 19 20 20 20 21 21 21 22 22 23 22 22 21 20 19 19 19 19 19 19 19 18 18 17 17 19 14 9 12 10 10 13 16 19 13 11 15 15 16 18 19 20 21 21 22 23 20 19 19 18 19 19 18 17 19 20 17 15 15 13 14 15 13 12 13 12 11 12 12 13 13 7 11 18 15 16 17 17 18 16 16 15 13 15 16 16
19 19 19 19 19 20 20 20 21 21 22 22 22 23 22 21 21 20 20 19 19 20 20 20 20 19 21 20 11 9 15 15 14 14 15 20 17 12 15 16 17 17 19 20 20 18 20 22 21 21 20 19 19 19 17 14 14 17 17 16 16 16 17 16 14 13 13 13 12 15 14 14 15 9 11 19 16 16 19 18 18 18 19 17 14 15 14 15
19 19 19 19 19 20 20 19 20 20 21 21 22 22 22 22 22 21 21 20 20 20 20 21 21 22 25 21 12 13 16 15 16 15 16 21 19 15 14 16 18 18 18 20 20 18 17 19 20 21 22 23 21 19 19 17 15 15 17 19 17 17 16 13 13 13 13 13 14 15 13 13 15 11 14 19 15 17 20 19 19 20 20 17 16 17 14 14
20 20 20 20 20 20 20 19 19 19 19 20 20 21 21 22 22 22 22 21 21 21 21 22 23 24 26 22 16 15 16 15 16 15 16 20 20 16 14 14 16 18 18 19 20 20 18 16 19 22 23 23 22 21 21 20 19 17 17 19 19 18 14 10 12 14 12 13 16 16 14 13 15 14 16 18 15 17 20 19 20 20 21 19 19 18 15 15
21 21 20 20 21 20 20 19 19 19 18 19 19 19 20 21 21 22 23 22 22 22 21 23 23 24 25 22 17 14 14 15 15 15 17 19 19 15 12 13 15 17 17 18 19 21 20 18 19 22 22 21 23 24 22 20 21 19 18 19 18 19 16 11 13 15 13 12 15 17 14 11 15 17 18 19 16 18 21 20 20 20 21 21 20 20 16 16
22 21 21 21 21 21 21 20 20 19 18 19 18 17 19 20 20 22 22 22 23 22 22 23 24 24 21 18 20 15 13 14 12 14 17 16 17 14 11 14 16 16 16 17 19 19 20 20 20 21 23 23 25 24 23 23 21 19 20 20 19 20 17 12 12 15 16 14 15 18 15 9 12 19 21 20 17 18 20 20 21 21 22 22 21 20 18 17
22 22 21 22 21 22 22 21 21 20 18 19 19 16 17 19 20 20 21 22 23 23 23 22 24 23 13 9 16 12 7 13 12 10 14 13 13 14 13 16 17 16 16 17 20 20 20 21 21 22 24 26 27 27 27 26 21 18 20 20 20 20 16 13 13 15 17 16 15 18 18 11 10 19 22 20 18 19 20 19 21 22 22 23 22 22 21 19
22 22 22 22 22 23 23 22 22 21 19 18 19 17 16 19 18 18 22 23 22 23 20 17 21 23 11 3 8 6 3 14 15 9 11 10 10 14 14 17 17 16 19 19 22 23 21 22 23 25 28 29 30 31 31 27 23 20 19 21 20 19 15 14 16 17 18 18 17 17 19 15 11 16 21 20 19 19 19 19 20 22 23 24 23 23 23 21
22 22 22 21 21 22 23 22 22 22 21 19 19 18 18 20 16 17 24 22 20 21 19 18 23 26 20 9 3 4 7 16 16 10 11 10 10 13 14 17 17 18 22 22 22 23 23 24 28 31 30 29 30 31 30 27 25 24 22 22 21 19 16 15 18 20 20 19 19 18 18 18 14 15 18 17 18 20 20 19 20 21 23 24 24 23 24 23
23 22 22 22 21 22 22 22 22 22 22 20 19 18 20 20 15 17 25 24 21 22 21 22 27 28 24 18 12 11 12 15 16 13 14 13 12 13 16 19 19 21 24 22 21 21 24 28 31 31 30 28 28 29 30 28 27 28 26 23 21 19 17 17 19 20 22 21 19 19 20 19 18 18 18 17 19 21 22 21 20 21 22 23 24 23 24 24
25 23 23 22 22 22 22 22 22 22 22 21 20 19 21 20 18 20 25 27 23 21 23 21 26 30 25 22 23 21 17 18 20 18 17 16 16 16 17 20 22 23 23 22 23 23 27 32 32 29 28 28 28 28 30 31 29 29 28 25 22 19 18 20 21 20 23 23 19 21 21 20 21 21 19 19 21 22 21 22 21 22 23 22 23 23 23 24
26 25 24 23 22 22 22 21 21 21 21 22 20 20 22 20 20 22 24 28 25 19 23 23 23 26 25 23 24 26 26 25 22 21 18 17 20 19 18 21 23 23 23 25 27 27 28 31 29 27 27 28 29 29 30 32 31 30 29 27 25 22 19 18 19 19 24 23 16 18 21 20 20 22 22 22 23 23 21 22 22 22 24 23 22 23 23 24
27 26 25 24 22 22 22 21 20 21 21 21 22 21 21 20 20 22 23 30 30 19 16 20 22 24 23 22 21 26 31 29 26 23 21 20 21 21 21 21 22 23 25 26 28 30 28 25 24 27 28 29 31 31 30 31 32 31 31 29 26 23 20 19 17 16 21 20 15 15 18 20 21 21 24 25 25 24 23 23 23 23 24 23 22 23 24 23
27 27 25 24 23 21 22 22 19 21 21 20 22 21 19 19 18 21 23 27 31 23 15 16 20 20 18 18 22 25 27 29 29 26 24 24 23 22 22 22 23 25 26 26 27 30 29 23 21 26 29 30 30 32 33 30 30 32 32 31 29 23 20 20 19 17 19 17 15 16 14 16 21 23 24 25 25 24 24 24 25 24 24 24 23 24 24 23
28 28 26 25 24 21 21 22 19 18 20 20 22 19 17 17 15 18 21 22 28 27 19 18 17 16 15 19 23 23 23 27 31 28 25 27 25 23 22 22 23 24 24 25 26 29 29 25 23 25 29 31 32 33 33 31 30 31 30 30 31 28 24 22 23 22 22 19 18 19 16 15 19 24 24 24 25 26 26 25 25 26 26 26 24 24 25 24
28 29 28 25 25 24 20 20 20 18 20 22 20 17 16 15 13 14 15 13 17 14 13 17 14 15 15 18 23 25 22 19 24 28 27 28 28 25 25 23 23 24 22 22 26 27 26 26 27 27 28 31 34 34 33 33 33 30 27 27 29 31 29 26 25 23 23 22 22 23 22 19 19 21 23 24 25 26 28 28 27 28 28 27 26 25 26 25
28 29 29 26 26 27 22 20 20 19 20 22 19 17 16 14 12 9 8 7 5 1 10 16 16 17 15 18 25 30 22 11 15 26 25 27 30 27 27 27 24 23 22 23 27 25 23 27 29 28 28 31 33 34 31 33 34 31 26 25 28 30 29 29 27 25 24 23 21 23 22 18 17 19 20 23 27 28 29 30 29 30 29 28 27 26 26 25
29 29 30 27 26 28 25 22 21 19 19 20 17 17 15 12 10 7 5 7 7 6 12 14 15 18 17 21 24 27 24 15 14 17 17 25 32 29 28 28 25 24 23 25 27 24 22 25 27 27 29 30 31 31 31 32 33 30 25 25 27 27 29 30 28 28 27 22 19 21 21 15 14 21 22 22 26 29 30 30 30 32 31 30 29 27 26 26
29 29 30 29 26 27 25 24 23 20 18 18 16 15 14 11 9 7 8 10 9 9 12 16 16 15 17 23 23 24 26 21 15 13 16 25 31 29 26 24 24 25 24 26 29 27 24 22 24 28 29 28 27 28 30 31 31 29 26 26 27 27 29 30 30 31 24 16 21 26 25 19 13 20 27 26 26 27 29 31 31 30 31 31 29 27 27 27
30 29 30 30 28 27 24 24 25 21 16 16 14 13 13 13 12 11 11 11 11 10 11 14 15 17 20 24 24 25 27 23 18 17 21 26 29 29 26 23 25 26 26 27 28 28 28 25 25 28 30 28 25 26 28 29 30 30 28 27 26 25 26 25 28 29 17 11 23 28 27 25 18 20 27 27 27 27 27 30 31 31 32 31 28 29 31 30
30 29 29 29 29 28 23 24 25 21 17 15 13 14 14 12 16 21 16 9 9 13 15 15 15 21 23 24 24 25 29 27 23 22 24 28 30 31 31 29 27 26 26 27 26 26 30 32 28 24 27 30 27 26 28 28 29 31 29 27 23 18 17 16 16 17 14 16 25 27 26 26 25 27 27 24 25 27 27 26 28 31 31 30 30 33 33 30
29 29 28 29 30 27 24 24 24 21 18 15 13 17 15 12 18 26 25 18 10 6 9 13 16 20 22 25 25 24 28 29 26 25 25 27 29 30 33 32 29 26 25 24 25 25 26 30 32 27 25 29 30 29 30 29 29 31 32 30 22 13 10 9 10 11 14 20 25 28 27 25 26 29 28 27 25 24 26 25 24 29 30 29 31 33 31 28
28 28 27 26 27 27 24 24 23 21 19 15 16 18 19 21 23 21 23 27 22 13 8 7 12 18 23 25 25 25 28 28 28 28 26 28 30 30 32 33 32 29 25 23 25 26 22 22 32 34 26 26 32 33 30 27 29 32 34 32 28 22 14 10 10 11 13 17 23 27 25 22 24 22 22 27 28 23 24 25 24 27 29 29 32 31 29 27
27 27 27 25 25 26 24 23 22 21 19 17 19 22 27 31 26 20 21 24 24 25 22 16 14 18 23 25 25 26 27 27 28 30 30 31 32 31 31 34 36 33 28 24 23 24 25 22 27 32 29 26 31 33 30 26 27 30 32 33 34 32 25 19 18 20 19 16 18 24 25 24 25 21 16 19 23 25 25 25 25 26 27 29 32 34 32 28
28 27 26 24 24 24 22 22 20 20 21 19 22 30 38 35 24 19 19 17 19 23 24 24 22 22 24 25 26 28 29 27 28 30 32 33 33 32 31 31 34 37 33 28 22 21 24 23 22 27 31 31 29 29 31 31 28 26 31 36 35 31 29 26 23 24 21 14 15 23 25 23 25 25 23 19 19 23 26 26 26 25 26 29 31 33 33 30
29 28 24 22 24 23 20 21 18 20 22 22 28 37 39 33 27 23 20 17 18 19 21 25 26 25 26 25 26 28 29 29 28 30 30 32 33 34 33 31 32 37 37 31 26 22 20 20 21 26 31 33 30 27 29 34 33 28 29 32 32 30 31 30 21 16 15 11 14 24 25 22 22 22 26 28 24 23 25 27 27 24 25 27 29 31 31 28
31 30 22 17 21 19 18 21 19 21 22 24 35 42 37 31 29 27 26 24 22 21 23 26 24 25 27 27 27 27 29 30 31 30 29 29 31 33 34 33 30 34 37 34 29 25 21 19 20 24 27 29 31 29 28 34 38 37 31 27 29 29 28 30 22 12 12 9 10 19 23 25 27 23 23 29 30 26 25 26 28 27 27 25 27 32 30 26
31 29 19 11 11 11 12 16 16 20 24 28 36 39 36 34 32 28 27 28 28 26 27 27 25 25 27 27 28 27 29 32 32 31 30 28 28 28 32 34 31 32 35 36 34 29 23 20 19 21 24 26 31 34 34 34 36 39 36 30 31 29 25 29 27 18 15 11 9 15 18 20 27 27 23 25 28 30 27 27 29 30 30 27 26 31 31 27
29 27 19 8 8 12 12 12 15 20 25 32 36 33 29 30 30 29 27 29 32 29 26 26 26 26 27 27 28 29 29 32 33 33 31 29 27 26 29 32 32 31 32 35 35 32 26 22 19 19 22 27 33 37 36 33 30 34 38 36 32 30 27 28 29 29 24 12 8 10 12 19 26 25 25 24 22 28 29 28 30 31 30 28 26 30 33 32
27 26 18 5 6 17 15 13 18 22 26 32 34 33 31 28 26 27 26 28 33 34 30 28 27 28 29 28 28 29 29 30 32 33 32 31 29 26 26 29 31 30 31 34 36 34 30 24 21 21 23 29 33 34 32 30 28 29 35 38 35 30 28 22 20 28 31 21 16 12 9 18 26 23 25 25 18 22 26 25 29 32 31 31 31 31 33 35
26 26 16 3 9 15 16 18 22 23 27 31 30 30 30 29 29 29 27 27 31 35 35 34 32 30 30 30 29 28 29 29 30 32 33 32 31 28 25 26 29 30 31 33 35 34 31 26 23 24 26 26 26 27 29 29 29 29 29 34 37 35 33 24 15 22 28 26 28 26 16 18 23 20 22 25 21 21 25 24 26 29 29 32 34 32 31 33
28 29 23 14 18 20 18 24 28 26 29 30 29 30 29 29 30 29 29 30 30 32 33 35 36 32 30 31 30 28 28 29 31 32 31 31 34 33 29 26 28 30 31 31 32 33 31 29 26 24 24 26 26 26 29 28 29 31 31 32 36 39 40 34 23 23 27 29 30 24 15 20 25 20 18 22 21 20 23 23 24 27 29 32 33 32 32 31
30 31 28 19 19 24 26 29 29 28 29 28 29 31 31 31 33 31 30 30 30 31 31 33 35 35 33 31 30 30 27 26 29 31 30 30 30 31 31 29 28 29 30 29 28 31 32 31 28 21 16 20 24 24 29 32 31 32 32 32 33 36 40 40 34 28 25 29 31 20 12 22 31 27 23 20 19 20 22 21 20 24 26 29 31 30 28 25
28 29 27 16 11 21 28 29 28 28 28 28 29 30 29 30 32 33 33 33 31 31 32 31 29 31 33 33 33 34 31 28 27 26 28 30 28 27 30 31 30 29 29 28 26 28 31 31 31 25 15 13 16 17 23 30 32 31 31 31 32 33 36 38 39 34 24 22 27 24 20 24 28 29 29 26 21 20 22 21 22 23 21 24 27 23 22 23
22 23 22 15 9 17 26 27 27 30 29 27 28 29 28 27 25 26 30 34 34 32 34 35 31 27 28 30 34 36 36 34 29 26 27 28 26 27 29 30 30 29 28 29 28 27 28 29 33 35 28 21 20 21 21 24 28 30 31 31 32 33 34 35 36 36 32 26 25 27 27 26 24 25 29 31 28 23 20 20 22 24 22 24 26 20 17 21
19 19 17 15 12 15 21 23 23 27 30 30 29 29 29 29 29 26 23 25 27 27 30 34 36 34 29 27 28 32 35 35 33 32 31 29 26 27 30 30 29 30 31 30 25 26 28 28 30 36 36 31 26 24 24 23 25 28 29 31 32 31 33 35 35 36 36 29 25 29 30 28 28 27 24 26 30 32 27 21 22 25 24 24 29 28 25 22
19 20 16 14 17 18 19 22 21 22 25 26 26 29 30 31 31 27 21 20 21 19 19 22 28 32 31 28 27 28 30 32 35 37 34 30 27 27 29 32 32 32 34 31 25 23 26 27 27 31 35 36 33 28 26 25 25 27 27 28 30 31 32 35 36 36 35 31 30 32 32 28 29 32 30 24 24 28 28 23 23 28 27 25 26 29 32 31
19 22 19 17 21 23 22 24 24 24 25 23 23 27 30 33 34 29 22 21 22 22 18 18 21 22 21 23 24 23 23 25 28 34 37 34 30 29 29 31 34 32 30 31 28 24 23 25 25 25 27 32 35 33 31 29 26 28 29 29 28 30 32 34 35 35 36 37 36 32 29 30 30 31 35 34 28 25 24 21 22 26 28 28 27 26 29 34
19 21 22 22 23 23 22 23 24 25 25 23 24 25 27 31 36 33 24 18 20 26 21 19 23 22 19 20 18 14 18 17 15 18 25 28 30 32 31 29 33 34 31 31 29 25 24 23 21 22 23 25 31 35 35 32 29 29 29 29 31 33 33 34 34 34 35 37 37 33 32 35 34 31 34 38 38 35 32 28 26 27 29 31 30 29 29 32
20 21 23 26 27 24 22 22 21 23 24 22 22 23 23 26 29 32 30 22 20 27 22 19 24 26 23 22 17 16 20 16 15 16 18 19 25 31 32 30 30 32 34 35 32 29 28 25 21 22 23 24 26 29 32 34 32 32 33 32 33 36 34 31 28 30 33 33 32 33 34 35 34 32 31 31 34 38 42 40 34 30 31 32 32 30 29 31
21 22 21 25 29 26 22 22 21 22 24 21 19 20 21 22 22 25 30 27 24 25 23 22 28 28 27 29 24 20 20 15 20 27 22 21 28 31 27 27 30 31 31 33 35 33 31 30 27 23 23 25 24 23 26 28 26 30 37 37 35 34 32 27 26 29 33 33 31 31 31 30 29 29 30 29 29 31 38 42 40 34 32 30 29 30 32 33
Wind_Direction
278 279 279 280 281 280 280 280 282 283 286 289 293 296 296 295 292 289 284 279 274 270 270 274 278 279 278 279 280 281 286 287 275 258 242 226 228 238 242 242 244 247 248 249 251 254 257 260 266 268 278 296 287 276 267 245 238 244 256 291 310 315 308 315 48 94 128 121 135 141 137 132 129 124 129 126 125 130 134 144 143 132 144 168 175 160 165 166
278 279 279 280 280 280 280 279 280 280 282 284 286 290 293 295 295 293 290 285 280 275 272 272 276 278 278 279 279 282 286 289 280 264 248 229 226 234 240 239 240 242 242 244 246 250 252 255 263 260 265 274 258 256 258 248 234 230 249 273 287 294 308 322 29 93 129 134 137 148 150 136 139 131 129 134 130 136 141 142 138 134 150 179 173 157 173 171
278 278 278 278 279 279 279 279 279 280 281 282 283 285 287 291 293 294 293 290 286 282 277 274 275 277 279 279 280 283 285 292 288 270 248 233 226 227 233 236 236 238 237 238 239 242 244 237 243 242 240 247 245 247 252 246 227 219 238 255 268 297 302 305 327 118 127 143 141 144 156 141 140 139 138 143 136 144 151 146 147 150 161 179 166 162 175 170
277 278 277 277 277 277 278 278 278 279 280 281 282 283 284 285 288 291 292 292 291 288 285 280 277 277 279 279 280 283 290 305 291 266 249 237 231 225 227 229 230 234 233 234 233 234 232 212 214 225 226 238 244 243 243 236 225 222 227 231 264 317 298 275 44 129 120 146 147 139 157 151 146 146 145 149 142 153 162 155 158 167 176 178 166 165 169 171
275 275 275 276 276 276 276 276 277 278 279 279 281 281 282 283 283 286 288 290 291 292 292 287 283 279 277 278 279 279 290 326 285 268 260 245 239 229 224 223 223 228 229 229 228 222 220 210 209 223 227 233 241 240 237 233 237 249 244 245 259 283 296 261 196 146 124 153 152 144 159 153 152 151 151 159 154 167 167 161 167 177 187 175 171 169 164 172
277 275 274 275 275 276 276 276 276 276 277 277 278 279 280 281 282 283 283 285 288 291 293 292 290 283 279 277 275 273 263 236 246 272 268 253 246 235 225 221 219 223 224 225 224 217 212 209 209 220 228 233 239 240 237 229 228 249 263 266 246 232 254 210 203 202 175 180 168 155 154 155 162 154 151 157 142 171 164 161 172 181 191 178 173 172 163 170
281 279 278 277 276 276 276 276 275 275 275 275 276 277 278 279 280 281 281 282 284 287 288 291 292 288 284 276 273 270 256 241 248 266 266 261 254 243 230 222 218 218 221 223 222 217 211 210 211 218 227 232 237 241 247 242 230 240 250 249 241 236 246 231 226 231 210 206 185 165 158 165 173 162 157 150 115 145 155 162 175 181 192 182 173 172 166 168
283 282 281 280 278 277 276 276 275 275 274 273 274 274 275 277 278 280 280 280 281 283 285 286 289 289 286 280 276 270 263 276 278 268 267 266 254 245 236 224 219 217 219 221 221 217 212 213 212 216 227 231 235 237 247 254 241 245 248 243 246 239 238 238 240 235 221 215 188 173 171 171 174 171 167 160 135 136 148 161 175 189 190 179 173 173 168 169
284 283 282 280 279 278 276 276 275 275 274 273 272 271 273 273 275 277 277 279 280 281 282 281 284 285 284 281 278 272 270 295 275 269 270 268 252 240 236 226 221 218 217 217 217 213 207 214 215 215 227 232 238 240 239 247 242 243 249 249 250 240 236 238 237 237 228 210 193 188 187 175 170 175 172 169 156 145 154 161 173 193 186 173 172 174 174 175
288 286 285 283 281 279 278 277 275 275 274 273 272 271 271 270 271 273 274 277 278 279 280 279 280 278 279 278 272 271 255 240 267 277 275 268 253 233 232 229 222 217 218 215 215 211 203 210 219 220 231 236 240 245 242 245 244 244 250 251 245 239 239 241 237 234 229 208 193 197 197 180 174 181 172 171 167 156 158 162 174 188 180 174 175 177 181 181
293 291 289 287 284 282 280 279 277 276 275 274 273 272 271 269 269 269 271 273 275 278 278 277 277 275 275 271 268 267 253 235 261 280 276 272 262 234 228 231 226 217 217 217 215 214 205 204 213 221 233 238 240 246 248 248 251 257 266 264 248 244 248 248 247 239 234 221 200 195 198 185 181 190 176 173 169 161 164 165 174 179 174 179 180 180 184 183
296 294 293 291 288 286 284 282 281 279 277 275 274 273 271 270 268 267 268 269 271 274 275 277 275 273 272 268 270 269 253 240 239 250 263 273 270 238 228 227 228 220 216 218 216 215 211 205 207 219 226 233 238 243 249 251 255 259 266 265 253 252 251 243 244 239 233 233 214 194 195 193 189 196 182 178 172 165 170 170 173 175 175 183 185 186 188 184
296 295 294 293 292 290 288 287 284 282 280 278 276 274 272 271 269 268 266 267 269 270 272 275 274 273 271 268 272 268 256 253 250 244 250 266 267 247 232 224 225 224 217 217 216 215 218 211 210 221 225 231 237 238 246 252 258 255 249 253 256 254 247 236 230 232 234 232 208 188 196 200 195 196 181 177 174 171 175 174 174 173 178 187 186 189 191 184
297 295 293 292 291 290 290 289 288 286 283 281 279 277 274 272 270 268 267 266 266 267 269 271 273 273 270 269 272 267 264 263 258 248 239 252 261 252 237 228 224 223 220 217 214 213 220 222 219 223 226 230 235 242 250 251 255 255 243 240 245 252 250 234 221 227 234 216 191 188 199 204 197 192 182 178 176 177 178 177 177 175 180 188 185 191 197 187
299 297 295 294 291 290 290 289 289 288 287 285 282 280 277 275 272 269 267 265 265 265 266 268 271 273 274 276 272 259 259 262 259 252 240 243 253 248 235 236 231 223 220 220 217 211 211 222 227 227 228 229 233 243 250 248 245 246 244 235 228 239 247 231 215 221 223 195 185 194 194 199 203 194 184 183 180 180 182 181 180 181 184 189 187 193 203 195
300 298 298 296 294 293 291 290 289 287 288 287 284 284 281 277 274 271 268 265 264 263 264 267 268 270 276 281 279 263 258 262 259 255 248 240 241 241 233 238 239 229 220 218 220 215 209 215 225 230 229 228 229 234 243 247 241 231 235 239 227 228 232 222 213 210 207 190 193 204 194 198 212 202 189 186 184 181 184 185 185 186 187 193 194 195 204 201
298 299 299 297 297 295 293 293 290 288 288 287 286 286 284 281 276 272 270 266 264 262 262 263 266 269 273 276 277 278 273 269 264 253 250 242 229 223 225 231 231 229 222 217 220 216 212 215 220 226 226 225 224 225 232 238 237 226 224 235 238 235 224 207 206 202 200 199 202 208 207 214 207 196 191 186 185 185 186 188 190 190 190 197 201 199 206 209
296 298 298 298 298 296 296 295 294 292 291 288 288 286 283 282 279 277 274 269 265 261 258 260 263 266 276 291 279 281 277 257 256 247 241 240 220 204 210 225 222 218 217 216 219 214 211 215 218 222 222 222 219 218 222 225 227 227 221 223 237 244 230 205 201 197 199 204 204 207 211 217 194 184 188 187 187 189 190 192 192 193 193 198 203 201 208 216
294 295 295 296 296 295 296 296 297 295 294 293 290 291 286 280 282 283 274 266 263 260 260 262 257 249 238 327 308 303 237 232 238 232 224 228 216 200 203 218 217 209 210 212 217 212 205 210 215 218 219 217 216 215 218 221 223 229 227 222 227 237 234 220 218 207 201 208 208 209 210 211 204 185 185 189 192 194 194 195 195 195 195 199 205 204 207 217
291 292 293 294 293 293 294 295 297 296 297 295 292 293 288 283 289 284 273 270 267 260 253 247 250 246 228 214 287 274 224 227 231 218 214 225 218 207 206 212 210 208 210 209 214 211 204 209 213 216 218 216 217 218 220 224 228 234 238 233 230 233 233 232 235 220 204 209 212 213 213 212 212 193 185 193 200 201 200 199 198 197 198 201 207 207 207 216
289 289 290 290 291 291 290 292 294 294 297 296 295 293 285 287 290 278 277 280 273 265 257 241 244 251 237 217 216 228 239 248 246 230 224 228 218 214 212 209 206 210 213 208 211 211 208 216 218 217 219 218 220 221 222 226 228 235 241 243 239 236 234 231 237 223 200 206 212 212 218 217 213 204 200 206 206 205 205 204 202 200 202 205 209 211 209 213
290 289 287 287 288 288 287 289 289 291 295 294 295 292 285 288 287 281 284 281 271 265 265 248 238 248 247 229 211 207 224 241 246 244 233 222 216 219 215 210 209 212 214 209 210 211 211 220 221 218 219 220 222 222 222 225 227 233 239 245 245 238 234 231 237 227 199 202 210 207 217 220 214 215 215 211 208 211 210 208 207 204 205 207 210 213 213 213
290 289 287 286 286 286 286 284 286 288 290 290 290 288 287 289 288 287 288 284 276 261 260 258 247 248 249 239 219 208 219 225 230 239 234 221 218 219 213 211 214 214 214 210 210 212 215 222 222 218 218 218 221 222 221 224 227 231 234 239 244 240 236 232 239 228 195 195 211 207 213 221 219 220 218 212 211 214 215 212 211 209 208 208 211 215 216 216
289 288 287 286 284 286 284 281 284 284 284 287 285 284 287 289 291 290 289 288 282 267 262 262 254 250 245 239 227 218 225 226 223 226 225 220 217 217 216 214 217 218 217 215 215 219 223 225 221 218 218 217 219 221 221 222 225 229 230 233 238 240 238 233 237 223 190 191 210 209 214 222 222 221 219 216 216 215 214 214 213 211 210 209 210 215 220 222
287 286 286 286 284 283 284 282 281 281 281 281 278 281 284 287 293 292 294 297 287 279 276 262 253 253 245 228 222 222 227 230 228 222 220 222 215 211 216 215 218 222 221 219 220 226 230 228 221 218 217 218 218 220 220 220 223 226 228 231 235 239 238 233 235 221 194 192 202 204 216 224 221 225 225 218 216 216 213 212 213 213 212 213 211 212 222 228
284 284 283 284 283 280 282 282 278 277 278 273 274 280 283 286 292 294 302 303 293 289 276 260 256 250 232 214 211 212 222 234 235 225 216 221 218 209 213 216 220 224 223 223 226 230 231 227 222 219 217 217 218 220 219 218 224 227 226 228 233 239 240 236 238 229 210 208 214 215 225 235 225 224 226 220 218 218 214 213 216 215 212 215 216 212 218 224
282 282 280 281 282 278 276 278 276 271 271 270 275 280 279 284 288 298 312 300 293 293 245 233 239 236 222 210 205 199 208 232 236 227 215 215 217 212 214 217 218 224 222 223 229 229 227 225 222 219 217 218 219 220 219 217 224 229 226 224 227 234 240 239 241 236 222 218 219 216 222 237 235 224 222 223 223 220 215 216 218 217 214 215 216 215 215 220
280 280 279 279 280 278 273 272 272 268 267 269 273 275 272 277 278 288 315 286 272 207 209 217 222 225 208 199 210 207 205 211 219 225 218 209 213 212 216 218 217 223 221 221 230 228 223 224 223 219 216 219 220 220 219 218 223 228 227 226 226 228 236 242 243 239 231 227 222 212 213 230 238 229 226 224 224 223 219 219 218 216 218 216 215 216 217 220
277 277 278 276 275 277 275 271 269 265 265 265 265 267 265 266 266 260 271 257 239 235 236 223 215 221 200 193 214 216 212 213 215 225 216 205 211 211 215 220 218 224 225 224 233 232 225 225 225 221 219 221 223 222 220 220 223 225 226 231 232 229 229 233 240 244 242 242 242 226 213 222 241 236 233 226 223 224 223 222 221 219 218 217 217 218 219 221
277 275 276 274 271 272 273 272 270 264 263 261 257 258 254 246 238 232 238 237 250 265 239 215 213 216 196 194 212 214 209 215 215 208 196 199 210 213 216 223 222 227 231 228 233 236 234 230 224 224 224 223 225 223 221 221 222 224 225 230 236 238 234 229 230 238 244 248 249 240 223 219 236 237 231 227 225 226 225 222 221 219 215 215 221 220 215 216
281 277 275 275 270 266 268 270 269 266 263 257 249 245 239 231 221 222 232 233 253 260 215 206 215 209 198 197 207 210 205 209 208 195 189 192 202 209 212 217 218 225 232 231 231 233 236 235 225 223 225 226 226 224 222 221 220 222 224 226 231 237 241 239 230 228 234 247 246 244 235 227 229 234 231 227 226 227 226 222 218 215 213 216 220 217 215 218
284 280 276 276 272 266 263 264 265 264 259 251 239 229 222 223 226 223 225 236 257 245 218 213 214 204 204 205 207 206 202 205 205 195 191 192 197 203 206 207 207 212 222 226 226 227 230 233 230 224 222 223 223 220 221 220 217 219 220 221 224 227 232 240 235 226 224 233 240 241 240 236 234 236 234 225 224 226 223 221 217 213 214 215 215 216 223 231
286 281 277 276 274 270 261 259 262 259 254 246 229 219 210 221 233 223 221 226 232 237 222 221 219 210 206 209 210 206 202 205 205 200 198 198 201 206 208 208 206 208 216 219 220 223 225 228 229 226 220 219 219 216 216 214 211 214 216 216 219 220 219 225 231 237 229 227 236 241 241 243 240 238 234 223 221 223 219 219 218 213 212 212 214 223 234 237
289 283 279 274 274 273 263 256 257 254 251 241 220 210 210 227 235 226 223 227 228 241 252 239 230 220 211 210 212 206 203 205 205 204 204 203 207 210 209 210 211 212 218 221 220 221 222 222 222 223 219 214 216 216 214 212 212 214 216 218 221 221 222 223 220 230 234 233 239 239 236 240 243 240 232 223 219 217 218 221 220 215 214 213 219 231 238 232
291 286 283 277 272 272 266 257 252 249 247 234 214 210 218 228 232 230 232 232 232 243 254 256 249 235 223 217 217 213 210 208 206 207 209 208 210 212 210 211 211 210 215 222 221 220 226 229 221 219 220 215 215 216 213 214 219 217 215 219 223 222 223 232 238 234 231 235 240 236 232 233 241 246 241 227 218 216 219 220 217 218 219 218 220 225 229 230
294 289 287 284 276 272 267 257 247 245 244 230 216 220 226 228 228 229 235 237 238 244 253 255 248 241 235 224 219 219 218 215 208 208 213 213 214 216 214 213 212 210 211 216 220 218 224 232 223 216 220 218 216 214 210 214 222 217 213 218 222 222 223 232 246 245 235 231 233 235 234 230 232 237 236 231 224 221 221 216 214 215 217 219 219 220 225 229
298 292 293 291 280 272 265 258 246 240 240 227 223 230 233 233 233 234 234 238 245 248 252 253 244 237 237 231 223 218 217 217 213 212 214 214 216 218 217 216 214 211 211 213 221 225 229 236 225 214 218 218 213 213 213 215 222 223 216 216 220 222 224 229 241 245 236 239 236 233 237 236 233 228 222 222 224 223 220 216 212 207 209 219 224 225 224 217
302 300 303 299 286 275 262 258 248 237 237 229 231 237 238 238 237 236 237 241 254 261 257 253 246 239 236 233 230 221 213 215 215 216 218 216 218 218 215 217 216 213 212 214 221 227 233 243 233 215 217 214 205 209 217 216 220 227 225 217 215 217 219 223 232 236 227 238 241 232 234 236 238 236 219 215 217 214 209 213 217 212 208 214 225 228 218 203
306 306 308 307 300 284 251 247 241 234 234 232 237 242 243 243 239 231 229 235 249 261 261 255 250 246 240 233 233 228 219 217 218 219 221 221 222 218 213 215 217 213 211 212 219 225 226 238 240 220 212 207 199 204 215 215 214 222 231 229 221 218 219 222 227 228 226 236 239 233 236 234 235 238 232 224 220 211 205 209 216 218 215 213 222 224 208 196
305 303 303 299 279 266 244 233 233 235 235 236 240 246 248 251 250 240 229 227 235 247 255 255 249 248 247 240 236 235 227 223 221 220 221 222 222 219 214 213 214 214 210 208 214 222 224 230 238 227 206 201 202 204 210 213 209 213 225 232 227 218 218 225 228 223 221 232 243 234 236 233 233 236 239 241 226 207 207 213 214 217 219 218 223 223 210 207
301 297 305 336 258 264 264 252 245 242 241 243 246 249 251 254 256 252 244 236 239 244 250 254 252 250 251 247 240 238 235 231 224 220 221 221 221 220 214 211 212 211 208 207 209 215 220 223 229 230 215 206 210 211 210 212 212 212 218 225 228 222 214 219 227 220 217 224 234 240 246 237 233 230 233 241 232 207 208 217 216 215 221 224 226 230 228 226
295 287 286 172 196 247 263 260 255 249 247 248 250 253 256 255 254 254 250 245 246 248 249 252 253 251 250 250 246 242 241 239 232 225 222 220 221 222 216 212 212 211 208 209 208 210 215 220 224 229 228 221 216 213 213 212 213 218 220 220 224 227 223 222 223 219 220 225 230 235 246 242 232 225 228 238 238 221 214 220 221 217 220 224 224 229 240 237
294 285 276 241 219 232 247 256 255 250 250 254 254 255 256 256 256 255 251 248 247 247 248 247 247 248 247 248 249 248 246 245 241 236 230 224 222 223 222 217 214 212 211 211 209 206 210 218 222 225 229 234 234 220 212 212 213 219 224 221 219 223 226 229 228 221 223 228 229 228 233 234 231 230 234 238 239 228 213 213 219 220 221 221 219 225 234 229
296 291 289 275 238 232 241 251 254 253 254 257 259 258 256 254 254 253 251 248 245 244 245 245 245 245 244 245 248 249 249 249 246 242 237 233 227 221 219 217 212 210 211 211 207 202 205 213 219 222 220 229 241 229 207 207 214 218 222 224 222 222 225 229 234 233 229 229 230 230 229 227 227 231 237 234 229 224 213 209 218 227 225 217 216 223 222 209
299 297 296 292 243 233 242 247 251 257 259 260 260 258 257 257 253 251 250 248 245 244 244 244 244 244 243 242 244 246 248 249 251 247 242 241 236 223 218 216 210 208 210 211 208 203 205 208 211 219 219 210 228 228 203 202 213 218 220 223 225 226 224 226 232 238 240 234 231 234 238 233 224 221 226 226 221 214 211 215 227 233 225 209 208 217 220 216
298 297 296 298 273 248 250 251 250 254 258 260 262 258 257 261 257 249 249 248 244 244 246 246 244 244 243 241 240 243 245 246 249 250 248 246 239 226 223 220 212 207 209 214 212 206 210 213 211 217 226 222 220 224 214 206 211 216 218 219 224 228 227 226 228 233 238 240 239 237 242 250 240 220 216 220 225 225 214 213 222 225 223 212 204 209 225 227
287 284 286 293 287 257 248 248 250 254 254 253 259 260 257 261 258 247 248 250 245 248 255 248 239 238 240 241 241 241 242 244 247 248 250 250 242 230 224 223 217 209 210 219 219 210 215 222 216 216 224 229 228 224 222 218 216 219 219 218 221 225 228 228 227 230 234 237 241 239 239 250 252 240 227 218 223 234 233 223 218 220 225 221 210 217 235 236
274 274 274 277 278 267 254 249 253 266 267 262 266 265 259 258 256 252 257 254 244 255 272 258 240 237 238 243 250 248 242 242 243 243 244 247 245 236 227 223 220 211 208 217 221 214 218 226 223 219 221 226 231 231 229 227 222 221 222 221 221 223 228 232 232 230 232 234 239 237 233 237 243 245 246 238 226 231 236 231 223 220 223 224 219 226 239 240
270 273 271 264 265 266 263 259 262 273 277 273 271 268 264 257 249 251 269 268 250 249 269 283 267 247 236 241 250 255 250 244 244 242 240 241 241 237 231 225 220 212 206 213 218 215 222 229 227 226 224 222 226 231 233 235 233 229 228 227 225 223 223 230 236 234 233 236 240 241 237 236 236 238 244 248 244 238 234 229 224 219 217 218 224 234 242 242
273 274 272 267 264 264 266 267 269 272 272 270 269 270 273 265 249 246 261 277 267 255 264 294 281 252 235 233 238 270 280 266 267 258 242 242 244 238 235 230 221 215 211 215 219 218 223 230 225 228 234 229 225 226 228 234 239 241 239 234 234 234 226 222 228 234 237 238 239 239 240 241 240 238 239 245 248 246 243 239 232 225 221 223 232 240 238 235
277 275 275 274 270 265 267 268 270 274 272 268 267 267 273 274 261 252 253 257 268 269 276 296 279 254 240 239 251 301 304 272 245 235 224 229 232 229 233 235 227 220 213 213 219 220 221 228 225 224 233 237 232 226 223 227 235 240 241 236 235 242 239 226 222 229 236 242 243 238 236 237 238 238 238 239 243 242 242 245 245 237 231 231 236 235 228 227
280 277 275 277 273 267 269 273 272 274 272 268 269 270 270 273 270 263 261 258 263 273 278 280 275 263 250 250 262 290 302 281 240 230 229 230 222 218 227 233 228 225 217 211 215 217 217 221 222 222 230 233 232 230 225 225 230 233 234 234 234 240 244 238 233 232 229 232 241 243 241 240 239 238 236 235 237 237 238 244 247 242 235 233 235 232 227 229